Lid_Strength_Index
1 0 0 -0 -0 -0 -0 -1 -0 -1 -1 -1 -1 -1 -1 -0 0 3 9 4 3 -2 0 6 6 7 7 8 9 11 15 16 14 14 13 12 12 11 11 11 11 11 9 11 9
1 1 0 0 -0 -0 -0 -1 -1 -1 -1 -1 -1 -1 -0 0 4 7 2 -2 -3 -2 6 8 9 8 9 9 9 13 16 15 13 11 11 12 12 12 11 12 11 12 10 11 11
1 1 0 0 -0 -0 -1 -1 -1 -1 -1 -1 -1 -0 0 1 9 9 -1 -2 -2 0 6 6 7 8 11 9 9 12 15 13 11 11 11 12 12 11 11 13 13 11 11 12 12
0 0 0 0 0 -0 -1 -1 -1 -1 -1 -1 0 0 0 5 12 7 -1 -2 -2 4 6 7 8 10 12 11 10 12 11 11 10 10 11 12 11 12 12 12 11 12 12 13 13
0 0 0 0 0 -0 -0 -1 -1 -1 -1 -0 0 0 5 10 8 2 -1 -0 4 6 7 8 10 11 13 12 12 11 11 11 10 10 11 11 11 12 11 12 12 12 12 13 14
0 0 0 0 -0 -0 -1 -1 -1 -1 -1 0 0 1 8 11 4 2 4 5 6 7 8 8 9 9 11 12 13 12 12 11 11 12 12 12 13 12 13 13 13 13 14 14 14
-0 0 0 0 -0 -0 -0 -1 -1 -1 -0 0 0 2 8 8 3 3 5 6 6 7 8 8 8 10 11 12 11 12 13 13 13 13 13 12 14 13 12 12 13 14 14 14 14
-0 0 0 0 0 -0 -0 -1 -1 -0 0 1 1 5 9 7 4 4 6 6 7 7 7 8 8 9 11 11 12 14 15 16 14 13 13 13 14 13 12 13 14 14 15 15 15
1 1 1 0 0 -0 -0 -0 1 1 0 0 5 8 9 5 6 6 7 7 8 8 8 7 9 12 12 15 16 17 18 18 15 13 14 15 15 13 13 13 15 16 16 15 15
1 1 1 1 1 1 0 0 1 2 2 3 5 10 9 10 9 8 8 8 9 10 10 10 12 14 16 16 18 18 19 18 17 15 15 16 15 13 13 13 15 16 16 16 16
1 1 1 1 1 0 2 5 7 8 7 9 10 10 10 9 8 10 8 9 10 11 14 13 15 16 15 15 16 17 18 17 17 14 15 15 15 13 13 15 16 16 16 16 16
1 0 0 0 -0 -0 2 6 7 7 9 6 7 9 8 9 10 10 8 11 13 15 14 15 16 14 14 15 16 17 18 18 16 15 15 15 15 14 14 15 15 15 16 16 16
2 1 1 0 0 1 4 5 6 7 9 8 7 8 8 9 10 10 9 12 14 15 15 16 14 14 15 16 16 17 17 18 16 16 16 17 17 15 15 15 15 15 15 16 16
2 2 2 1 3 4 5 4 6 7 13 12 10 10 10 9 11 10 10 11 14 14 15 16 14 14 16 16 16 18 15 15 16 17 18 17 20 17 16 16 16 16 16 16 16
2 2 2 1 4 5 5 6 7 8 20 12 12 10 11 11 12 12 11 12 14 14 15 15 16 16 16 15 15 16 15 15 16 18 19 19 20 18 16 17 17 16 16 16 16
2 2 2 2 3 4 6 6 7 13 19 14 13 14 13 13 14 13 13 12 12 15 16 15 14 15 14 15 14 14 15 16 18 18 22 18 18 19 18 16 17 16 16 16 16
2 2 2 1 4 5 5 6 13 17 13 15 15 14 14 15 15 15 15 16 16 18 18 17 16 15 15 16 16 16 17 20 21 22 21 19 20 17 16 16 16 15 16 16 16
3 2 3 2 3 5 6 9 17 13 14 14 15 15 15 15 16 15 17 17 16 17 19 18 18 15 14 14 16 17 16 19 23 23 21 19 20 17 17 16 15 14 15 15 15
3 3 4 2 4 5 7 15 15 13 12 14 15 17 17 15 16 17 18 18 16 16 16 18 17 15 15 14 14 17 18 15 18 26 23 19 17 17 16 16 16 16 15 15 15
3 4 4 2 4 5 10 13 12 10 11 13 15 15 17 16 16 17 18 16 15 14 14 15 17 15 15 14 15 15 14 18 19 23 24 20 19 17 16 16 16 16 16 15 15
4 7 4 2 4 8 13 12 10 9 10 12 13 14 16 15 16 17 16 15 14 14 13 14 15 17 16 16 16 16 17 16 16 17 20 24 19 16 15 15 16 15 14 15 14
5 10 3 3 9 9 12 10 9 10 9 11 11 12 13 14 16 16 15 14 12 13 14 13 16 19 17 16 15 16 15 15 17 19 19 19 17 15 15 15 14 14 14 14 14
8 9 5 4 13 12 10 10 9 10 10 11 12 11 13 14 14 14 14 12 12 12 13 13 16 22 19 17 17 16 16 15 16 16 20 18 18 14 15 15 14 13 14 13 13
10 13 10 9 8 10 11 11 12 10 10 10 11 11 12 13 12 14 14 13 12 12 10 11 16 17 18 18 16 17 16 16 15 16 15 16 14 15 14 13 13 13 13 13 13
11 13 12 13 11 10 9 11 12 13 11 11 13 12 12 14 14 14 13 14 13 12 12 12 17 17 16 17 17 16 16 17 17 15 15 14 15 14 12 12 12 13 13 13 13
12 13 12 13 11 11 10 12 12 12 12 13 13 12 11 13 13 15 14 14 14 15 14 14 16 17 20 16 16 17 16 17 15 15 15 15 15 12 12 13 14 12 12 13 12
12 12 12 13 13 13 13 12 12 11 13 12 11 12 12 11 12 13 12 12 12 14 15 15 17 20 18 19 18 19 17 16 15 15 13 15 13 16 15 14 14 14 14 13 12